1491501600.29,37441,12.81,72722.0,-10.45,-11.23,-11.23,0,*65
1491501601.56,37442,12.88,72720.8,-10.45,-11.29,-11.29,0,*66
1491501602.83,37443,12.88,72730.3,-10.45,-11.29,-11.29,0,*67
1491501604.12,37444,12.88,72730.3,-10.47,-11.29,-11.29,0,*62
1491501605.39,37445,12.88,72738.5,-10.47,-11.29,-11.23,0,*69
1491501606.6,37446,12.88,72740.3,-10.45,-11.23,-11.15,0,*67
1491501607.87,37447,12.81,72746.3,-10.45,-11.29,-11.29,0,*63
1491501609.15,37448,12.81,72746.8,-10.47,-11.33,-11.33,0,*6E
1491501610.42,37449,12.81,72748.5,-10.45,-11.37,-11.29,0,*62
1491501611.7,37450,12.88,72754.5,-10.47,-11.33,-11.33,0,*67
1491501612.97,37451,12.88,72756.8,-10.45,-11.29,-11.29,0,*64
1491501614.24,37452,12.81,72754.0,-10.45,-11.29,-11.29,0,*67
1491501615.49,37453,12.81,72752.0,-10.45,-11.33,-11.33,0,*66
1491501616.75,37454,12.81,72752.8,-10.45,-11.33,-11.33,0,*61
1491501617.98,37455,12.81,72750.5,-10.45,-11.41,-11.41,0,*60
1491501619.23,37456,12.81,72748.3,-10.47,-11.37,-11.45,0,*64
1491501620.49,37457,12.88,72746.8,-10.45,-11.33,-11.33,0,*62
1491501621.78,37458,12.88,72750.0,-10.47,-11.33,-11.37,0,*6B
1491501623.06,37459,12.81,72744.0,-10.47,-11.33,-11.33,0,*6E
1491501624.33,37460,12.88,72740.5,-10.45,-11.29,-11.29,0,*66
1491501625.61,37461,12.88,72742.5,-10.47,-11.33,-11.37,0,*61
1491501626.87,37462,12.81,72732.3,-10.45,-11.33,-11.33,0,*64
1491501628.13,37463,12.88,72732.0,-10.47,-11.45,-11.37,0,*62
1491501629.39,37464,12.88,72714.3,-10.45,-11.33,-11.33,0,*62
1491501630.65,37465,12.88,72712.3,-10.45,-11.33,-11.33,0,*63
1491501631.93,37466,12.81,72708.0,-10.47,-11.37,-11.37,0,*62
1491501633.21,37467,12.81,72704.8,-10.47,-11.37,-11.37,0,*63
1491501634.47,37468,12.88,72716.0,-10.45,-11.33,-11.33,0,*6E
1491501635.76,37469,12.88,72728.3,-10.47,-11.29,-11.33,0,*66
1491501637.04,37470,12.81,72724.5,-10.47,-11.33,-11.33,0,*65
1491501638.28,37471,12.88,72722.8,-10.45,-11.23,-11.29,0,*6C
1491501639.56,37472,12.88,72738.5,-10.47,-11.33,-11.37,0,*63
1491501640.78,37473,12.88,72726.5,-10.45,-11.41,-11.41,0,*64
1491501642.06,37474,12.88,72724.0,-10.47,-11.45,-11.63,0,*65
1491501643.35,37475,12.88,72726.8,-10.47,-11.59,-11.63,0,*69
1491501644.64,37476,12.88,72718.0,-10.47,-11.85,-11.89,0,*6F
1491501645.92,37477,12.88,72716.5,-10.47,-11.97,-12.07,0,*68
1491501647.21,37478,12.88,72716.3,-10.47,-11.89,-11.89,0,*6D
1491501648.5,37479,12.88,72714.3,-10.47,-12.11,-12.11,0,*6C
1491501649.76,37480,12.88,72722.8,-10.47,-12.35,-12.43,0,*6B
1491501650.99,37481,12.88,72714.8,-10.47,-12.43,-12.43,0,*6B
1491501652.21,37482,12.88,72714.3,-10.49,-12.25,-12.29,0,*6A
1491501653.48,37483,12.88,72710.8,-10.49,-12.11,-12.15,0,*63
1491501654.74,37484,12.81,72700.8,-10.49,-12.11,-12.11,0,*60
1491501655.98,37485,12.88,72686.5,-10.49,-12.25,-12.15,0,*62
1491501657.28,37486,12.88,72670.3,-10.51,-12.07,-12.07,0,*6B
1491501658.52,37487,12.88,72664.3,-10.51,-12.03,-12.03,0,*6A
1491501659.79,37488,12.88,72660.8,-10.51,-11.93,-12.03,0,*6F
1491501661.05,37489,12.88,72658.0,-10.49,-11.77,-11.77,0,*6D
1491501662.32,37490,12.88,72670.5,-10.53,-11.81,-11.89,0,*66
1491501663.62,37491,12.88,72660.5,-10.51,-11.89,-11.89,0,*6D
1491501664.91,37492,12.88,72660.0,-10.51,-11.89,-11.93,0,*65
1491501666.2,37493,12.88,72660.5,-10.51,-11.89,-11.89,0,*6F
1491501667.5,37494,12.88,72658.8,-10.51,-11.89,-11.89,0,*68
1491501668.78,37495,12.88,72666.0,-10.53,-11.93,-11.93,0,*6B
1491501669.99,37496,12.88,72666.8,-10.53,-12.03,-12.03,0,*68
1491501671.24,37497,12.88,72670.5,-10.53,-12.03,-11.89,0,*68
1491501672.52,37498,12.88,72680.5,-10.53,-11.93,-11.93,0,*66
1491501673.77,37499,12.88,72672.5,-10.53,-11.93,-12.03,0,*6D
1491501675.04,37500,12.88,72672.8,-10.53,-12.11,-12.07,0,*61
1491501676.33,37501,12.88,72672.8,-10.55,-11.97,-12.07,0,*6B
1491501677.62,37502,12.88,72668.5,-10.55,-11.81,-11.85,0,*66
1491501678.88,37503,12.88,72666.5,-10.53,-11.89,-11.77,0,*64
1491501680.14,37504,12.88,72660.8,-10.53,-11.77,-11.77,0,*62
1491501681.41,37505,12.88,72654.3,-10.53,-11.73,-11.73,0,*63
1491501682.68,37506,12.88,72648.8,-10.53,-11.67,-11.67,0,*60
1491501683.95,37507,12.81,72646.3,-10.53,-11.67,-11.67,0,*61
1491501685.23,37508,12.88,72648.5,-10.55,-11.73,-11.81,0,*65
1491501686.5,37509,12.81,72646.8,-10.53,-11.77,-11.81,0,*66
1491501687.78,37510,12.88,72646.3,-10.55,-11.73,-11.73,0,*61
1491501689.07,37511,12.88,72646.5,-10.55,-11.73,-11.73,0,*60
1491501690.36,37512,12.88,72646.5,-10.55,-11.73,-11.81,0,*6E
1491501691.62,37513,12.88,72644.8,-10.53,-11.77,-11.77,0,*64
1491501692.91,37514,12.81,72646.3,-10.55,-11.73,-11.73,0,*65
1491501694.19,37515,12.88,72648.8,-10.55,-11.67,-11.81,0,*6C
1491501695.49,37516,12.88,72646.5,-10.55,-11.55,-11.59,0,*6B
1491501696.76,37517,12.88,72648.8,-10.55,-11.45,-11.55,0,*67
1491501698.03,37518,12.88,72640.5,-10.55,-11.55,-11.45,0,*68
1491501699.32,37519,12.81,72636.8,-10.55,-11.55,-11.55,0,*68
1491501700.59,37520,12.88,72642.0,-10.53,-11.55,-11.51,0,*60
1491501701.89,37521,12.88,72646.5,-10.55,-11.67,-11.67,0,*63
1491501703.18,37522,12.88,72654.0,-10.55,-11.59,-11.55,0,*6C
1491501704.45,37523,12.88,72646.8,-10.53,-11.55,-11.55,0,*67
1491501705.75,37524,12.88,72646.3,-10.55,-11.55,-11.55,0,*66
1491501707.04,37525,12.88,72652.0,-10.55,-11.67,-11.67,0,*67
1491501708.33,37526,12.88,72646.8,-10.55,-11.67,-11.59,0,*69
1491501709.61,37527,12.88,72644.8,-10.55,-11.73,-11.81,0,*68
1491501710.88,37528,12.88,72658.3,-10.57,-11.73,-11.73,0,*68
1491501712.17,37529,12.88,72660.3,-10.55,-11.59,-11.67,0,*66
1491501713.47,37530,12.88,72670.0,-10.55,-11.59,-11.55,0,*6F
1491501714.76,37531,12.88,72672.0,-10.55,-11.55,-11.59,0,*6E
1491501716.05,37532,12.88,72672.3,-10.55,-11.59,-11.59,0,*61
1491501717.34,37533,12.88,72670.8,-10.55,-11.55,-11.59,0,*6C
1491501718.62,37534,12.88,72660.5,-10.53,-11.63,-11.63,0,*61
1491501719.91,37535,12.88,72662.3,-10.55,-11.59,-11.55,0,*6A
1491501721.14,37536,12.88,72662.5,-10.53,-11.41,-11.45,0,*67
1491501722.4,37537,12.81,72656.0,-10.55,-11.55,-11.45,0,*65
1491501723.65,37538,12.88,72664.3,-10.55,-11.45,-11.41,0,*6F
1491501724.9,37539,12.88,72666.8,-10.55,-11.45,-11.41,0,*6E
1491501726.17,37540,12.88,72662.0,-10.53,-11.55,-11.51,0,*66
1491501727.45,37541,12.88,72660.5,-10.55,-11.45,-11.55,0,*64
1491501728.69,37542,12.88,72660.3,-10.55,-11.45,-11.45,0,*66
1491501729.94,37543,12.88,72664.8,-10.55,-11.45,-11.45,0,*67
1491501731.19,37544,12.88,72660.8,-10.55,-11.41,-11.45,0,*64
1491501732.48,37545,12.88,72666.5,-10.55,-11.37,-11.29,0,*6E
1491501733.76,37546,12.88,72682.5,-10.55,-11.37,-11.37,0,*62
1491501735.05,37547,12.88,72666.0,-10.55,-11.37,-11.37,0,*63
1491501736.32,37548,12.88,72656.0,-10.53,-11.37,-11.37,0,*6A
1491501737.58,37549,12.81,72658.0,-10.55,-11.55,-11.45,0,*6C
1491501738.88,37550,12.88,72670.8,-10.55,-11.59,-11.67,0,*68
1491501740.17,37551,12.88,72658.5,-10.55,-11.67,-11.59,0,*69
1491501741.42,37552,12.88,72652.3,-10.55,-11.45,-11.45,0,*67
1491501742.7,37553,12.81,72654.8,-10.55,-11.37,-11.37,0,*66
1491501743.97,37554,12.88,72664.5,-10.53,-11.33,-11.33,0,*67
1491501745.27,37555,12.88,72662.0,-10.55,-11.29,-11.29,0,*60
1491501746.56,37556,12.81,72654.3,-10.55,-11.29,-11.29,0,*63
1491501747.78,37557,12.88,72658.3,-10.53,-11.23,-11.23,0,*64
1491501748.99,37558,12.88,72662.3,-10.53,-11.19,-11.19,0,*6B
1491501750.26,37559,12.88,72662.8,-10.55,-11.29,-11.23,0,*66
1491501751.48,37560,12.88,72668.3,-10.53,-11.23,-11.23,0,*60
1491501752.75,37561,12.88,72670.8,-10.53,-11.33,-11.37,0,*65
1491501754.02,37562,12.88,72674.3,-10.55,-11.37,-11.41,0,*65
1491501755.28,37563,12.81,72658.0,-10.53,-11.37,-11.37,0,*63
1491501756.54,37564,12.81,72670.8,-10.53,-11.37,-11.37,0,*64
1491501757.81,37565,12.88,72676.8,-10.55,-11.37,-11.41,0,*62
1491501759.1,37566,12.81,72678.5,-10.55,-11.37,-11.37,0,*60
1491501760.36,37567,12.88,72668.5,-10.55,-11.37,-11.41,0,*60
1491501761.63,37568,12.81,72670.3,-10.53,-11.33,-11.37,0,*6C
1491501762.85,37569,12.81,72678.5,-10.53,-11.41,-11.41,0,*69
1491501764.12,37570,12.81,72682.8,-10.53,-11.37,-11.37,0,*61
1491501765.39,37571,12.81,72678.0,-10.55,-11.37,-11.41,0,*67
1491501766.65,37572,12.88,72688.8,-10.53,-11.37,-11.37,0,*63
1491501767.91,37573,12.88,72682.3,-10.53,-11.33,-11.33,0,*62
1491501769.18,37574,12.88,72680.5,-10.53,-11.37,-11.37,0,*65
1491501770.44,37575,12.81,72678.0,-10.53,-11.51,-11.51,0,*64
1491501771.66,37576,12.88,72676.5,-10.53,-11.41,-11.41,0,*67
1491501772.89,37577,12.88,72684.8,-10.53,-11.41,-11.41,0,*66
1491501774.11,37578,12.88,72690.0,-10.53,-11.41,-11.41,0,*69
1491501775.36,37579,12.81,72680.3,-10.55,-11.41,-11.41,0,*6E
1491501776.58,37580,12.81,72676.3,-10.53,-11.41,-11.41,0,*6E
1491501777.83,37581,12.81,72676.0,-10.55,-11.45,-11.45,0,*69
1491501779.07,37582,12.81,72678.0,-10.53,-11.51,-11.41,0,*6D
1491501780.32,37583,12.81,72674.5,-10.53,-11.51,-11.41,0,*6C
1491501781.61,37584,12.81,72670.8,-10.55,-11.55,-11.55,0,*6C
1491501782.84,37585,12.81,72662.8,-10.53,-11.41,-11.41,0,*6B
1491501784.06,37586,12.81,72656.5,-10.53,-11.41,-11.41,0,*68
1491501785.3,37587,12.81,72668.3,-10.53,-11.41,-11.51,0,*68
1491501786.55,37588,12.88,72674.8,-10.55,-11.45,-11.45,0,*60
1491501787.8,37589,12.88,72686.3,-10.53,-11.37,-11.41,0,*66
1491501789.04,37590,12.88,72694.0,-10.53,-11.37,-11.41,0,*6E
1491501790.3,37591,12.88,72700.0,-10.53,-11.37,-11.37,0,*6E
1491501791.57,37592,12.88,72698.8,-10.53,-11.37,-11.37,0,*6D
1491501792.83,37593,12.88,72682.3,-10.53,-11.37,-11.37,0,*6C
1491501794.08,37594,12.88,72674.8,-10.53,-11.51,-11.41,0,*6A
1491501795.32,37595,12.81,72680.5,-10.53,-11.51,-11.41,0,*6B
1491501796.54,37596,12.81,72682.5,-10.53,-11.41,-11.41,0,*69
1491501797.81,37597,12.88,72680.8,-10.55,-11.55,-11.45,0,*6F
1491501799.05,37598,12.81,72672.3,-10.53,-11.41,-11.51,0,*66
1491501800.28,37599,12.81,72670.0,-10.53,-11.41,-11.41,0,*66
1491501801.55,37600,12.81,72684.8,-10.55,-11.45,-11.55,0,*62
1491501802.78,37601,12.88,72688.3,-10.53,-11.41,-11.41,0,*64
1491501804.0,37602,12.88,72692.0,-10.53,-11.41,-11.41,0,*67
1491501805.26,37603,12.81,72690.5,-10.53,-11.51,-11.51,0,*66
1491501806.53,37604,12.81,72678.0,-10.53,-11.51,-11.51,0,*61
1491501807.82,37605,12.81,72676.0,-10.55,-11.55,-11.51,0,*62
1491501809.06,37606,12.88,72672.5,-10.53,-11.51,-11.41,0,*62
1491501810.31,37607,12.88,72672.0,-10.53,-11.51,-11.41,0,*63
1491501811.6,37608,12.81,72692.3,-10.55,-11.55,-11.55,0,*6B
1491501812.88,37609,12.88,72692.8,-10.53,-11.63,-11.63,0,*6C
1491501814.15,37610,12.88,72676.8,-10.53,-11.67,-11.67,0,*64
1491501815.39,37611,12.88,72676.0,-10.55,-11.45,-11.45,0,*63
1491501816.66,37612,12.88,72676.0,-10.53,-11.51,-11.51,0,*66
1491501817.93,37613,12.88,72666.3,-10.53,-11.67,-11.55,0,*66
1491501819.2,37614,12.81,72664.5,-10.53,-11.67,-11.55,0,*61
1491501820.47,37615,12.88,72676.3,-10.53,-11.63,-11.55,0,*64
1491501821.75,37616,12.81,72682.5,-10.53,-11.63,-11.63,0,*62
1491501823.04,37617,12.88,72676.8,-10.55,-11.55,-11.59,0,*69
1491501824.31,37618,12.88,72682.5,-10.55,-11.55,-11.45,0,*6B
1491501825.56,37619,12.81,72682.5,-10.53,-11.45,-11.55,0,*6C
1491501826.78,37620,12.88,72692.0,-10.53,-11.41,-11.41,0,*67
1491501828.01,37621,12.88,72692.5,-10.53,-11.41,-11.41,0,*66
1491501829.25,37622,12.81,72684.8,-10.53,-11.51,-11.41,0,*64
1491501830.47,37623,12.88,72696.8,-10.53,-11.41,-11.41,0,*64
1491501831.72,37624,12.88,72702.8,-10.55,-11.45,-11.45,0,*65
1491501832.95,37625,12.88,72706.3,-10.53,-11.41,-11.41,0,*62
1491501834.17,37626,12.88,72714.3,-10.53,-11.41,-11.41,0,*61
1491501835.42,37627,12.81,72718.3,-10.55,-11.45,-11.41,0,*62
1491501836.66,37628,12.88,72714.8,-10.53,-11.41,-11.37,0,*6E
1491501837.91,37629,12.81,72710.8,-10.53,-11.51,-11.41,0,*6F
1491501839.18,37630,12.88,72720.0,-10.55,-11.45,-11.55,0,*61
1491501840.42,37631,12.88,72722.0,-10.53,-11.51,-11.41,0,*66
1491501841.67,37632,12.88,72722.8,-10.55,-11.45,-11.45,0,*62
1491501842.92,37633,12.88,72722.0,-10.53,-11.41,-11.37,0,*64
1491501844.18,37634,12.88,72718.8,-10.53,-11.37,-11.37,0,*62
1491501845.41,37635,12.88,72722.3,-10.53,-11.45,-11.41,0,*67
1491501846.63,37636,12.88,72724.8,-10.53,-11.41,-11.45,0,*64
1491501847.88,37637,12.88,72718.8,-10.55,-11.45,-11.45,0,*67
1491501849.12,37638,12.88,72708.0,-10.53,-11.41,-11.51,0,*6F
1491501850.34,37639,12.81,72706.3,-10.53,-11.41,-11.41,0,*6F
1491501851.57,37640,12.81,72710.0,-10.53,-11.41,-11.41,0,*61
1491501852.81,37641,12.81,72722.0,-10.53,-11.37,-11.41,0,*61
1491501854.06,37642,12.88,72728.0,-10.55,-11.41,-11.41,0,*65
1491501855.32,37643,12.88,72730.8,-10.53,-11.37,-11.37,0,*62
1491501856.59,37644,12.88,72728.5,-10.53,-11.37,-11.51,0,*65
1491501857.86,37645,12.88,72706.0,-10.53,-11.63,-11.63,0,*64
1491501859.14,37646,12.88,72718.5,-10.53,-11.77,-11.63,0,*62
1491501860.4,37647,12.88,72716.3,-10.53,-11.67,-11.81,0,*6E
1491501861.67,37648,12.81,72718.0,-10.53,-11.77,-11.67,0,*68
1491501862.89,37649,12.88,72712.0,-10.53,-12.03,-12.03,0,*68
1491501864.16,37650,12.81,72698.0,-10.55,-12.21,-12.11,0,*65
1491501865.46,37651,12.88,72688.5,-10.55,-12.07,-12.11,0,*60
1491501866.73,37652,12.88,72686.3,-10.53,-11.93,-11.89,0,*69
1491501868.03,37653,12.88,72678.8,-10.55,-11.97,-11.93,0,*61
1491501869.31,37654,12.81,72668.3,-10.55,-11.73,-11.73,0,*62
1491501870.6,37655,12.88,72664.3,-10.55,-11.73,-11.67,0,*66
1491501871.89,37656,12.88,72658.8,-10.55,-11.73,-11.73,0,*60
1491501873.19,37657,12.81,72656.5,-10.55,-11.93,-11.85,0,*66
1491501874.47,37658,12.88,72670.3,-10.55,-11.81,-11.73,0,*63
1491501875.77,37659,12.88,72672.8,-10.55,-11.67,-11.67,0,*6F
1491501877.05,37660,12.81,72678.5,-10.55,-11.73,-11.81,0,*68
1491501878.35,37661,12.81,72690.8,-10.55,-11.67,-11.67,0,*64
1491501879.61,37662,12.81,72694.8,-10.57,-11.73,-11.73,0,*65
1491501880.88,37663,12.81,72696.3,-10.57,-11.67,-11.59,0,*69
1491501882.12,37664,12.81,72706.0,-10.57,-11.55,-11.45,0,*62
1491501883.38,37665,12.81,72700.5,-10.57,-11.45,-11.55,0,*63
1491501884.63,37666,12.81,72696.5,-10.57,-11.45,-11.55,0,*60
1491501885.92,37667,12.81,72698.0,-10.55,-11.55,-11.55,0,*62
1491501887.17,37668,12.81,72698.0,-10.55,-11.45,-11.45,0,*6D
1491501888.44,37669,12.81,72698.8,-10.57,-11.55,-11.55,0,*6E
1491501889.69,37670,12.81,72694.0,-10.57,-11.55,-11.45,0,*67
1491501890.94,37671,12.88,72690.8,-10.57,-11.45,-11.55,0,*66
1491501892.19,37672,12.81,72682.8,-10.55,-11.45,-11.45,0,*66
1491501893.41,37673,12.81,72672.5,-10.57,-11.45,-11.45,0,*65
1491501894.68,37674,12.81,72654.8,-10.57,-11.59,-11.55,0,*6E
1491501895.95,37675,12.81,72644.0,-10.57,-11.67,-11.67,0,*63
1491501897.21,37676,12.81,72658.0,-10.57,-11.73,-11.81,0,*6D
1491501898.48,37677,12.88,72660.8,-10.57,-11.81,-11.81,0,*61
1491501899.74,37678,12.81,72644.5,-10.57,-11.73,-11.81,0,*63
1491501901.02,37679,12.88,72646.0,-10.59,-11.77,-11.77,0,*61
1491501902.29,37680,12.81,72646.3,-10.57,-11.81,-11.73,0,*64
1491501903.55,37681,12.81,72646.5,-10.57,-11.81,-11.73,0,*65
1491501904.82,37682,12.81,72650.8,-10.57,-11.67,-11.67,0,*6B
1491501906.09,37683,12.81,72658.5,-10.57,-11.67,-11.59,0,*67
1491501907.36,37684,12.81,72650.8,-10.57,-11.63,-11.59,0,*64
1491501908.59,37685,12.81,72642.5,-10.57,-11.45,-11.45,0,*6C
1491501909.86,37686,12.88,72646.8,-10.57,-11.55,-11.55,0,*6F
1491501911.15,37687,12.81,72660.8,-10.59,-11.59,-11.59,0,*60
1491501912.42,37688,12.81,72666.0,-10.57,-11.55,-11.55,0,*61
1491501913.67,37689,12.88,72676.5,-10.57,-11.59,-11.45,0,*6D
1491501914.96,37690,12.81,72674.8,-10.59,-11.51,-11.51,0,*66
1491501916.22,37691,12.88,72670.3,-10.55,-11.55,-11.45,0,*6A
1491501917.47,37692,12.81,72676.3,-10.57,-11.55,-11.45,0,*6B
1491501918.7,37693,12.88,72684.3,-10.57,-11.45,-11.45,0,*6B
1491501919.99,37694,12.81,72672.8,-10.59,-11.59,-11.51,0,*6A
1491501921.21,37695,12.81,72678.3,-10.57,-11.45,-11.45,0,*6D
1491501922.5,37696,12.81,72676.0,-10.59,-11.51,-11.59,0,*68
1491501923.79,37697,12.81,72680.5,-10.59,-11.63,-11.59,0,*68
1491501925.09,37698,12.81,72678.3,-10.59,-11.59,-11.59,0,*6E
1491501926.33,37699,12.88,72668.0,-10.57,-11.55,-11.45,0,*60
1491501927.62,37700,12.81,72654.8,-10.59,-11.51,-11.51,0,*6E
1491501928.85,37701,12.88,72654.5,-10.57,-11.45,-11.45,0,*61
1491501930.13,37702,12.88,72648.0,-10.59,-11.51,-11.51,0,*6C
1491501931.36,37703,12.88,72654.8,-10.57,-11.45,-11.45,0,*63
1491501932.58,37704,12.81,72650.0,-10.57,-11.45,-11.45,0,*64
1491501933.81,37705,12.88,72658.0,-10.57,-11.45,-11.45,0,*65
1491501935.08,37706,12.81,72656.0,-10.57,-11.55,-11.55,0,*66
1491501936.33,37707,12.88,72676.8,-10.57,-11.45,-11.55,0,*66
1491501937.56,37708,12.81,72672.8,-10.57,-11.45,-11.41,0,*6C
1491501938.81,37709,12.81,72676.0,-10.57,-11.41,-11.55,0,*6C
1491501940.05,37710,12.81,72680.3,-10.57,-11.41,-11.37,0,*60
1491501941.28,37711,12.81,72688.5,-10.57,-11.41,-11.41,0,*60
1491501942.57,37712,12.81,72688.5,-10.59,-11.63,-11.67,0,*69
1491501943.84,37713,12.88,72694.5,-10.57,-11.59,-11.59,0,*62
1491501945.11,37714,12.81,72682.8,-10.57,-11.59,-11.59,0,*65
1491501946.37,37715,12.81,72682.8,-10.57,-11.81,-11.85,0,*60
1491501947.64,37716,12.81,72674.0,-10.57,-11.97,-11.97,0,*67
1491501948.91,37717,12.88,72664.5,-10.57,-11.85,-11.85,0,*66
1491501950.17,37718,12.81,72656.0,-10.57,-11.73,-11.81,0,*64
1491501951.44,37719,12.81,72658.3,-10.57,-11.85,-11.85,0,*68
1491501952.71,37720,12.81,72656.0,-10.57,-12.07,-12.11,0,*65
1491501953.95,37721,12.88,72660.0,-10.59,-12.03,-12.03,0,*6D
1491501955.22,37722,12.88,72656.8,-10.59,-12.03,-12.11,0,*6D
1491501956.48,37723,12.88,72640.8,-10.59,-12.03,-12.11,0,*6C
1491501957.72,37724,12.81,72622.5,-10.59,-12.03,-12.03,0,*68
1491501959.01,37725,12.88,72638.8,-10.59,-11.85,-11.73,0,*60
1491501960.31,37726,12.81,72636.0,-10.59,-11.89,-11.89,0,*6A
1491501961.59,37727,12.88,72640.0,-10.59,-11.85,-11.77,0,*66
1491501962.89,37728,12.81,72630.8,-10.59,-11.77,-11.73,0,*60
1491501964.17,37729,12.88,72624.5,-10.59,-11.77,-11.77,0,*65
1491501965.46,37730,12.81,72650.3,-10.59,-11.85,-11.85,0,*6D
1491501966.75,37731,12.81,72656.5,-10.59,-11.77,-11.77,0,*6C
1491501968.05,37732,12.88,72662.3,-10.59,-11.63,-11.73,0,*6E
1491501969.33,37733,12.88,72658.5,-10.63,-11.77,-11.77,0,*67
1491501970.62,37734,12.81,72680.8,-10.63,-11.55,-11.55,0,*60
1491501971.92,37735,12.81,72686.0,-10.63,-11.63,-11.63,0,*61
1491501973.21,37736,12.81,72674.0,-10.63,-11.63,-11.63,0,*62
1491501974.5,37737,12.81,72676.8,-10.59,-11.51,-11.51,0,*6A
1491501975.79,37738,12.81,72674.5,-10.59,-11.51,-11.51,0,*65
1491501977.08,37739,12.81,72676.5,-10.59,-11.59,-11.59,0,*64
1491501978.38,37740,12.81,72674.0,-10.59,-11.59,-11.59,0,*6A
1491501979.67,37741,12.88,72674.3,-10.59,-11.59,-11.51,0,*63
1491501980.96,37742,12.81,72668.0,-10.59,-11.59,-11.59,0,*68
1491501982.26,37743,12.81,72672.5,-10.59,-11.63,-11.63,0,*69
1491501983.56,37744,12.81,72668.8,-10.59,-11.63,-11.63,0,*6E
1491501984.86,37745,12.88,72674.3,-10.59,-11.63,-11.63,0,*6F
1491501986.15,37746,12.88,72670.0,-10.59,-11.51,-11.59,0,*64
1491501987.44,37747,12.81,72664.5,-10.59,-11.59,-11.59,0,*6D
1491501988.73,37748,12.81,72668.0,-10.59,-11.51,-11.59,0,*6A
1491501990.02,37749,12.88,72682.8,-10.59,-11.51,-11.51,0,*63
1491501991.3,37750,12.81,72686.5,-10.59,-11.51,-11.51,0,*6B
1491501992.6,37751,12.81,72688.3,-10.59,-11.59,-11.59,0,*6A
1491501993.89,37752,12.81,72688.3,-10.59,-11.77,-11.77,0,*69
1491501995.18,37753,12.81,72698.8,-10.59,-11.63,-11.73,0,*69
1491501996.47,37754,12.88,72696.3,-10.59,-11.63,-11.51,0,*6E
1491501997.76,37755,12.88,72688.0,-10.59,-11.51,-11.51,0,*6E
1491501999.05,37756,12.81,72682.3,-10.59,-11.59,-11.59,0,*6D
1491502000.34,37757,12.88,72688.0,-10.59,-11.63,-11.59,0,*65
1491502001.64,37758,12.81,72698.8,-10.59,-11.59,-11.51,0,*6B
1491502002.86,37759,12.81,72710.8,-10.57,-11.45,-11.45,0,*6C
1491502004.11,37760,12.81,72710.3,-10.59,-11.41,-11.41,0,*68
1491502005.35,37761,12.81,72690.8,-10.59,-11.41,-11.45,0,*6D
1491502006.6,37762,12.88,72698.5,-10.59,-11.45,-11.45,0,*6A
1491502007.85,37763,12.88,72694.5,-10.59,-11.45,-11.45,0,*6B
1491502009.08,37764,12.88,72702.8,-10.57,-11.45,-11.45,0,*62
1491502010.3,37765,12.81,72704.5,-10.57,-11.45,-11.45,0,*63
1491502011.57,37766,12.88,72706.3,-10.59,-11.51,-11.45,0,*6B
1491502012.83,37767,12.88,72710.8,-10.59,-11.51,-11.45,0,*6A
1491502014.1,37768,12.88,72710.5,-10.57,-11.37,-11.37,0,*6E
1491502015.32,37769,12.88,72710.3,-10.57,-11.41,-11.41,0,*6F
1491502016.57,37770,12.88,72712.8,-10.57,-11.45,-11.37,0,*62
1491502017.82,37771,12.81,72704.5,-10.59,-11.45,-11.45,0,*68
1491502019.06,37772,12.81,72710.3,-10.59,-11.41,-11.41,0,*6B
1491502020.29,37773,12.88,72710.5,-10.57,-11.41,-11.41,0,*64
1491502021.51,37774,12.81,72710.8,-10.57,-11.41,-11.41,0,*63
1491502022.76,37775,12.81,72710.3,-10.59,-11.41,-11.41,0,*6C
1491502024.01,37776,12.88,72708.3,-10.59,-11.45,-11.41,0,*6B
1491502025.27,37777,12.81,72716.0,-10.57,-11.37,-11.37,0,*60
1491502026.52,37778,12.81,72730.0,-10.57,-11.41,-11.37,0,*6E
1491502027.74,37779,12.88,72732.3,-10.57,-11.41,-11.45,0,*6A
1491502029.01,37780,12.81,72722.5,-10.57,-11.55,-11.55,0,*68
1491502030.28,37781,12.81,72718.8,-10.57,-11.59,-11.67,0,*64
1491502031.58,37782,12.81,72712.3,-10.59,-11.63,-11.63,0,*64
1491502032.88,37783,12.81,72708.5,-10.59,-11.59,-11.67,0,*68
1491502034.18,37784,12.81,72714.3,-10.59,-11.59,-11.63,0,*6B
1491502035.44,37785,12.81,72710.8,-10.57,-11.51,-11.51,0,*6D
1491502036.71,37786,12.81,72714.5,-10.57,-11.67,-11.55,0,*6F
1491502038.01,37787,12.88,72714.5,-10.59,-11.63,-11.63,0,*61
1491502039.28,37788,12.81,72704.0,-10.57,-11.55,-11.55,0,*60
1491502040.51,37789,12.81,72700.8,-10.57,-11.45,-11.45,0,*61
1491502041.8,37790,12.81,72702.8,-10.59,-11.59,-11.51,0,*6F
1491502043.09,37791,12.81,72700.3,-10.59,-11.51,-11.51,0,*66
1491502044.31,37792,12.88,72688.0,-10.57,-11.45,-11.45,0,*6B
1491502045.54,37793,12.81,72690.3,-10.57,-11.45,-11.45,0,*6A
1491502046.81,37794,12.88,72700.3,-10.59,-11.59,-11.45,0,*6E
1491502048.03,37795,12.81,72708.5,-10.57,-11.45,-11.45,0,*6C
1491502049.28,37796,12.81,72714.3,-10.57,-11.55,-11.45,0,*6E
1491502050.55,37797,12.81,72726.8,-10.57,-11.55,-11.55,0,*6E
1491502051.84,37798,12.81,72734.8,-10.59,-11.51,-11.63,0,*6E
1491502053.13,37799,12.81,72740.8,-10.59,-11.51,-11.51,0,*6E
1491502054.4,37800,12.81,72736.3,-10.57,-11.55,-11.59,0,*63
1491502055.67,37801,12.81,72718.5,-10.57,-11.55,-11.55,0,*6E
1491502056.96,37802,12.81,72716.3,-10.59,-11.59,-11.77,0,*6F
1491502058.23,37803,12.81,72716.0,-10.57,-11.55,-11.59,0,*60
1491502059.52,37804,12.81,72718.8,-10.59,-11.73,-11.73,0,*65
1491502060.79,37805,12.81,72708.8,-10.57,-11.67,-11.59,0,*67
1491502062.08,37806,12.81,72708.8,-10.59,-11.73,-11.73,0,*67
1491502063.34,37807,12.81,72716.8,-10.57,-11.73,-11.67,0,*6D
1491502064.64,37808,12.88,72716.0,-10.59,-11.73,-11.63,0,*68
1491502065.91,37809,12.81,72708.3,-10.57,-11.67,-11.67,0,*66
1491502067.16,37810,12.81,72708.3,-10.57,-11.45,-11.59,0,*63
1491502068.45,37811,12.81,72710.0,-10.59,-11.73,-11.63,0,*60
1491502069.73,37812,12.81,72700.0,-10.59,-11.73,-11.77,0,*66
1491502071.03,37813,12.81,72706.8,-10.59,-11.73,-11.63,0,*62
1491502072.29,37814,12.81,72700.8,-10.57,-11.73,-11.81,0,*67
1491502073.55,37815,12.88,72704.0,-10.57,-11.73,-11.81,0,*66
1491502074.84,37816,12.88,72702.5,-10.59,-11.63,-11.59,0,*6F
1491502076.14,37817,12.81,72702.5,-10.59,-11.63,-11.63,0,*67
1491502077.44,37818,12.81,72700.3,-10.59,-11.59,-11.59,0,*68
1491502078.72,37819,12.81,72698.3,-10.59,-11.51,-11.51,0,*69
1491502079.95,37820,12.81,72700.8,-10.57,-11.45,-11.45,0,*6D
1491502081.22,37821,12.81,72698.3,-10.57,-11.55,-11.55,0,*6C
1491502082.51,37822,12.81,72698.0,-10.59,-11.59,-11.59,0,*61
1491502083.78,37823,12.81,72702.8,-10.57,-11.55,-11.59,0,*62
1491502085.03,37824,12.88,72702.5,-10.57,-11.55,-11.45,0,*68
1491502086.27,37825,12.81,72696.5,-10.57,-11.55,-11.45,0,*69
1491502087.5,37826,12.81,72700.0,-10.57,-11.45,-11.45,0,*6B
1491502088.72,37827,12.81,72704.0,-10.57,-11.45,-11.45,0,*6A
1491502089.95,37828,12.81,72706.5,-10.57,-11.45,-11.45,0,*65
1491502091.17,37829,12.81,72704.5,-10.57,-11.45,-11.45,0,*64
1491502092.42,37830,12.81,72708.3,-10.57,-11.45,-11.55,0,*6D
1491502093.68,37831,12.81,72712.5,-10.57,-11.45,-11.55,0,*6C
1491502094.95,37832,12.81,72710.3,-10.57,-11.59,-11.55,0,*62
1491502096.17,37833,12.81,72714.3,-10.57,-11.45,-11.45,0,*6F